Domov               UVHVVR             MKGP            O straneh              
ZDRAVSTVENO VARSTVO RASTLIN
  MREŽA AGROMET. POSTAJ
 ► PROGNOSTIČNA OBVESTILA
AGROMETEOROLOŠKI PODATKI -
ARSO
OBVLADOVANJE TVEGANJ ZARADI
NEUGODNIH VREMENSKIH RAZMER
  ► NARAVNE NESREČE
  ► SUŠA/MOČA
  ► NAMAKANJE
  ► ŽLED (gozdarstvo)
KARTOGRAFSKI PRIKAZI
SPLETNE POVEZAVE
PROJEKTI IN PUBLIKACIJE

AGROMETEOROLOŠKA MREŽA: VREMENSKE POSTAJE IN FENOLOŠKA OPAZOVANJA

Pregled podatkov za lokacijo Slovenske Konjice, meteorološka postaja 37885

Pregled senzorjev na lokaciji

ID Ime Zadnja
vrednost
Datum
zadnje
spremembe
Tip
senzorja
4060 Temperatura 2 m ( °C) 28,86 °C 17.8.2017 18:30 50YA
4061 Relativna vlaga 2 m (% RH) 51,01 % RH 17.8.2017 18:30 50YA
4062 Padavine 0.2 mm (mm) 0 mm 17.8.2017 18:30 Rain-O-Matic
4063 Omočenost lista (U) 0 U 17.8.2017 18:30 A730WET

Pregled podatkov zadnjih 24 ur

Zap.
št.
Datum in čas Slovenske Konjice
Omočenost
lista
Padavine
0.2
mm
Relativna
vlaga
2
m
Temperatura
2
m
0 17.8.2017 17:30 0 0 51,01 28,86
1 17.8.2017 17:00 0 0 48,4 28,94
2 17.8.2017 16:30 0 0 45,84 29,23
3 17.8.2017 16:00 0 0 45,74 29,11
4 17.8.2017 15:30 0 0 46,35 28,99
5 17.8.2017 15:00 0 0 45,45 29,28
6 17.8.2017 14:30 0 0 44,57 28,99
7 17.8.2017 14:00 0 0 47,16 28,84
8 17.8.2017 13:30 0 0 52,06 27,94
9 17.8.2017 13:00 0 0 54,58 27,77
10 17.8.2017 12:30 0 0 56,19 27,08
11 17.8.2017 12:00 0 0 53,7 27,67
12 17.8.2017 11:30 0 0 53,46 27,62
13 17.8.2017 11:00 0 0 54,43 27,2
14 17.8.2017 10:30 0 0 55,31 26,52
15 17.8.2017 10:00 0 0 54,46 26,35
16 17.8.2017 09:30 0 0 56,58 25,89
17 17.8.2017 09:00 0 0 59,15 25,4
18 17.8.2017 08:30 0 0 66,32 23,42
19 17.8.2017 08:00 0 0 69,16 22,54
20 17.8.2017 07:30 0 0 72,04 21,49
21 17.8.2017 07:00 0 0 73,94 20,68
22 17.8.2017 06:30 0 0 75,75 20,02
23 17.8.2017 06:00 0 0 78,29 19,07
24 17.8.2017 05:30 0 0 82,76 17,83
25 17.8.2017 05:00 0 0 84,35 17,44
26 17.8.2017 04:30 0 0 84,44 17,48
27 17.8.2017 04:00 1 0 85,89 17,41
28 17.8.2017 03:30 1 0 91,14 16,53
29 17.8.2017 03:00 0 0 89,99 16,85
30 17.8.2017 02:30 0 0 83 18,12
31 17.8.2017 02:00 0 0 78,05 19,15
32 17.8.2017 01:30 0 0 82,34 17,97
33 17.8.2017 01:00 0 0 83,27 17,66
34 17.8.2017 00:30 0 0 79,41 18,27
35 17.8.2017 00:00 0 0 76,17 18,97
36 16.8.2017 23:30 0 0 75,65 18,88
37 16.8.2017 23:00 0 0 75,24 18,68
38 16.8.2017 22:30 0 0 76,04 18,32
39 16.8.2017 22:00 0 0 68,91 19,63
40 16.8.2017 21:30 0 0 68,06 20,12
41 16.8.2017 21:00 0 0 65,76 20,78
42 16.8.2017 20:30 0 0 68,11 21,07
43 16.8.2017 20:00 0 0 69,21 21,56
44 16.8.2017 19:30 0 0 67,79 22,34
© 2011 Ministrstvo za kmetijstvo, gozdarstvo in prehrano. Vse pravice pridržane.